TimePDT,TemperatureF,Dew PointF,Humidity,Sea Level PressureIn,VisibilityMPH,Wind Direction,Wind SpeedMPH,Gust SpeedMPH,PrecipitationIn,Events,Conditions,WindDirDegrees,DateUTC
12:35 AM,53.6,26.6,35,30.28,10.0,Calm,Calm,-,N/A,,Clear,0,2013-08-05 07:35:00
1:35 AM,42.8,24.8,49,30.28,10.0,Calm,Calm,-,N/A,,Clear,0,2013-08-05 08:35:00
1:55 AM,48.2,24.8,40,30.28,10.0,Calm,Calm,-,N/A,,Clear,0,2013-08-05 08:55:00
2:15 AM,42.8,24.8,49,30.28,10.0,NNW,3.5,-,N/A,,Clear,330,2013-08-05 09:15:00
2:35 AM,41.0,24.8,53,30.27,10.0,Calm,Calm,-,N/A,,Clear,0,2013-08-05 09:35:00
2:55 AM,42.8,24.8,49,30.27,10.0,Calm,Calm,-,N/A,,Clear,0,2013-08-05 09:55:00
3:15 AM,42.8,24.8,49,30.27,10.0,North,3.5,-,N/A,,Clear,360,2013-08-05 10:15:00
3:35 AM,44.6,24.8,46,30.27,10.0,West,3.5,-,N/A,,Clear,280,2013-08-05 10:35:00
3:55 AM,41.0,23.0,49,30.27,10.0,North,3.5,-,N/A,,Clear,360,2013-08-05 10:55:00
4:15 AM,42.8,21.2,42,30.27,10.0,North,3.5,-,N/A,,Clear,360,2013-08-05 11:15:00
4:35 AM,41.0,19.4,42,30.26,10.0,Calm,Calm,-,N/A,,Clear,0,2013-08-05 11:35:00
4:55 AM,42.8,19.4,39,30.26,10.0,NNW,4.6,-,N/A,,Clear,340,2013-08-05 11:55:00
5:15 AM,42.8,19.4,39,30.27,10.0,North,3.5,-,N/A,,Clear,10,2013-08-05 12:15:00
5:35 AM,41.0,17.6,39,30.27,10.0,NW,3.5,-,N/A,,Clear,320,2013-08-05 12:35:00
5:55 AM,41.0,17.6,39,30.28,10.0,Calm,Calm,-,N/A,,Clear,0,2013-08-05 12:55:00
6:15 AM,41.0,17.6,39,30.28,10.0,NNW,3.5,-,N/A,,Clear,340,2013-08-05 13:15:00
6:35 AM,39.2,19.4,45,30.29,10.0,North,6.9,-,N/A,,Clear,350,2013-08-05 13:35:00
6:55 AM,44.6,17.6,34,30.29,10.0,Calm,Calm,-,N/A,,Clear,0,2013-08-05 13:55:00
7:35 AM,46.4,19.4,34,30.29,10.0,Calm,Calm,-,N/A,,Clear,0,2013-08-05 14:35:00
7:55 AM,51.8,19.4,28,30.29,10.0,NNW,4.6,-,N/A,,Clear,330,2013-08-05 14:55:00
8:15 AM,55.4,23.0,29,30.29,10.0,Calm,Calm,-,N/A,,Clear,0,2013-08-05 15:15:00
8:35 AM,60.8,19.4,20,30.29,10.0,Calm,Calm,-,N/A,,Clear,0,2013-08-05 15:35:00
8:55 AM,64.4,28.4,26,30.29,10.0,SE,3.5,-,N/A,,Clear,140,2013-08-05 15:55:00
9:15 AM,64.4,28.4,26,30.29,10.0,SSE,6.9,-,N/A,,Clear,150,2013-08-05 16:15:00
9:35 AM,68.0,24.8,20,30.29,10.0,SE,4.6,-,N/A,,Clear,130,2013-08-05 16:35:00
9:55 AM,71.6,19.4,14,30.29,10.0,ESE,4.6,-,N/A,,Clear,120,2013-08-05 16:55:00
10:15 AM,73.4,17.6,12,30.29,10.0,ESE,5.8,-,N/A,,Clear,110,2013-08-05 17:15:00
10:35 AM,75.2,17.6,11,30.29,10.0,Calm,Calm,-,N/A,,Clear,0,2013-08-05 17:35:00
10:55 AM,77.0,21.2,12,30.28,10.0,East,4.6,-,N/A,,Clear,100,2013-08-05 17:55:00
11:15 AM,77.0,19.4,12,30.28,10.0,ESE,6.9,-,N/A,,Clear,120,2013-08-05 18:15:00
11:35 AM,77.0,19.4,12,30.27,10.0,East,5.8,-,N/A,,Clear,90,2013-08-05 18:35:00
11:55 AM,78.8,19.4,11,30.27,10.0,ESE,6.9,-,N/A,,Clear,110,2013-08-05 18:55:00
12:15 PM,80.6,19.4,10,30.26,10.0,ESE,8.1,-,N/A,,Clear,120,2013-08-05 19:15:00
12:35 PM,80.6,19.4,10,30.26,10.0,NE,4.6,-,N/A,,Clear,50,2013-08-05 19:35:00
12:55 PM,82.4,19.4,10,30.25,10.0,ESE,13.8,19.6,N/A,,Clear,110,2013-08-05 19:55:00
1:15 PM,82.4,21.2,10,30.24,10.0,ESE,10.4,16.1,N/A,,Clear,120,2013-08-05 20:15:00
1:35 PM,82.4,21.2,10,30.24,10.0,ESE,8.1,16.1,N/A,,Clear,120,2013-08-05 20:35:00
1:55 PM,82.4,19.4,10,30.24,10.0,SE,13.8,20.7,N/A,,Clear,130,2013-08-05 20:55:00
2:15 PM,84.2,19.4,9,30.24,10.0,ESE,11.5,17.3,N/A,,Clear,110,2013-08-05 21:15:00
2:35 PM,84.2,19.4,9,30.23,10.0,SSE,5.8,17.3,N/A,,Clear,150,2013-08-05 21:35:00
2:55 PM,84.2,19.4,9,30.23,10.0,East,4.6,-,N/A,,Clear,100,2013-08-05 21:55:00
3:15 PM,84.2,21.2,10,30.22,7.0,West,17.3,26.5,N/A,,Clear,280,2013-08-05 22:15:00
3:35 PM,84.2,23.0,11,30.22,7.0,West,11.5,24.2,N/A,,Scattered Clouds,280,2013-08-05 22:35:00
3:55 PM,82.4,23.0,11,30.21,7.0,West,18.4,24.2,N/A,,Scattered Clouds,280,2013-08-05 22:55:00
4:15 PM,82.4,23.0,11,30.20,7.0,WNW,15.0,23.0,N/A,,Scattered Clouds,290,2013-08-05 23:15:00
4:35 PM,80.6,23.0,12,30.20,7.0,WNW,18.4,25.3,N/A,,Scattered Clouds,290,2013-08-05 23:35:00
4:55 PM,82.4,23.0,11,30.20,10.0,WSW,13.8,-,N/A,,Scattered Clouds,250,2013-08-05 23:55:00
5:15 PM,82.4,23.0,11,30.19,10.0,WSW,6.9,16.1,N/A,,Clear,240,2013-08-06 00:15:00
5:35 PM,80.6,24.8,13,30.19,10.0,SSW,12.7,18.4,N/A,,Scattered Clouds,200,2013-08-06 00:35:00
5:55 PM,80.6,24.8,13,30.19,10.0,SSW,15.0,21.9,N/A,,Clear,210,2013-08-06 00:55:00
6:15 PM,77.0,24.8,14,30.19,10.0,SSW,13.8,20.7,N/A,,Clear,210,2013-08-06 01:15:00
6:35 PM,75.2,24.8,15,30.20,10.0,Calm,Calm,-,N/A,,Scattered Clouds,0,2013-08-06 01:35:00
6:55 PM,73.4,24.8,16,30.20,10.0,West,8.1,18.4,N/A,,Scattered Clouds,280,2013-08-06 01:55:00
7:15 PM,73.4,23.0,15,30.20,10.0,NW,9.2,18.4,N/A,,Scattered Clouds,310,2013-08-06 02:15:00
7:35 PM,71.6,24.8,17,30.21,10.0,WNW,4.6,-,N/A,,Clear,300,2013-08-06 02:35:00
7:55 PM,69.8,26.6,20,30.22,7.0,NNW,6.9,-,N/A,,Clear,330,2013-08-06 02:55:00
8:15 PM,68.0,28.4,23,30.23,10.0,North,5.8,-,N/A,,Clear,360,2013-08-06 03:15:00
8:35 PM,66.2,28.4,24,30.24,10.0,North,5.8,-,N/A,,Scattered Clouds,350,2013-08-06 03:35:00
8:55 PM,66.2,30.2,26,30.24,10.0,NNW,4.6,-,N/A,,Clear,330,2013-08-06 03:55:00
9:15 PM,64.4,30.2,28,30.25,10.0,Calm,Calm,-,N/A,,Mostly Cloudy,0,2013-08-06 04:15:00
9:35 PM,64.4,30.2,28,30.25,10.0,Calm,Calm,-,N/A,,Mostly Cloudy,0,2013-08-06 04:35:00
9:55 PM,60.8,28.4,29,30.26,10.0,Calm,Calm,-,N/A,,Overcast,0,2013-08-06 04:55:00
10:15 PM,60.8,30.2,31,30.26,10.0,SSW,4.6,-,N/A,,Overcast,210,2013-08-06 05:15:00
10:35 PM,59.0,30.2,34,30.26,10.0,Calm,Calm,-,N/A,,Mostly Cloudy,0,2013-08-06 05:35:00
10:55 PM,59.0,30.2,34,30.25,10.0,Calm,Calm,-,N/A,,Mostly Cloudy,0,2013-08-06 05:55:00
11:15 PM,51.8,28.4,41,30.26,10.0,Calm,Calm,-,N/A,,Scattered Clouds,0,2013-08-06 06:15:00
11:35 PM,55.4,30.2,38,30.25,10.0,Calm,Calm,-,N/A,,Clear,0,2013-08-06 06:35:00
11:55 PM,53.6,30.2,41,30.26,10.0,Calm,Calm,-,N/A,,Clear,0,2013-08-06 06:55:00